sat.trackr.live / text

‹ back to catalog

STARLINK-30043

NORAD 57417 · 2023-102P

PAYLOAD ACTIVE UNKNOWN

§ Identity

Operator
Country
US
Launch date
2023-07-20
Launch site
AFWTR
Launch vehicle
Mass (kg)
RCS (m²)

Purposes: comms

External: N2YO · Heavens-Above · Gunter

§ Orbital elements

Epoch: 2026-05-25T02:09:04.228128Z

Period
94.27 min
Inclination
43.0021°
Eccentricity
0.0001533
Mean motion
15.27589690 rev/d
Perigee alt
482.0 km
Apogee alt
484.1 km
Semi-major
6,861.2 km
B*
1.0589e-4
RAAN
177.1631°
Arg perigee
267.2539°
Mean anomaly
92.8137°
Rev number
15,792

§ Raw data

STARLINK-300431 57417U 23102P   26145.08963227  .00002654  00000+0  10589-3 0  99992 57417  43.0021 177.1631 0001533 267.2539  92.8137 15.27589690157924

JSON: /api/v1/satellites/57417 · /tle

For live sub-satellite position, see the globe view (requires WebGL).

§ Visibility from observer

Set your observer location to see the next 7 days of passes ≥ 10°. The values pass through the URL so the page stays shareable.

No JS? Fill the form by hand. The geolocation button needs JavaScript.